This is the latest recevied weather packets stored in our database for station/object KB1JLI. If no packets are shown the sender has not sent any weather packets the latest 10 day(s).
| Time | Temp. | Humidity | Pressure | Rain* | Wind** | Luminosity | Snow |
|---|---|---|---|---|---|---|---|
| 1777830110 | 10.56° C | 54% | 1005.9 hPa | 0 mm | - | 74 W/m² | - |
| 1777829805 | 10.56° C | 55% | 1005.7 hPa | 0 mm | - | 88 W/m² | - |
| 1777829501 | 10.56° C | 55% | 1005.8 hPa | 0 mm | - | 140 W/m² | - |
| 1777829198 | 10.56° C | 56% | 1005.7 hPa | 0 mm | - | 216 W/m² | - |
| 1777828895 | 10° C | 57% | 1005.9 hPa | 0 mm | - | 314 W/m² | - |
| 1777828592 | 10° C | 57% | 1006 hPa | 0 mm | - | 234 W/m² | - |
| 1777828289 | 9.44° C | 58% | 1005.9 hPa | 0 mm | - | 185 W/m² | - |
| 1777827987 | 9.44° C | 59% | 1005.7 hPa | 0 mm | - | 127 W/m² | - |
| 1777827683 | 9.44° C | 59% | 1005.9 hPa | 0 mm | - | 131 W/m² | - |
| 1777827380 | 9.44° C | 59% | 1006 hPa | 0 mm | - | 165 W/m² | - |
| 1777827076 | 9.44° C | 61% | 1005.8 hPa | 0 mm | - | 183 W/m² | - |
| 1777826774 | 9.44° C | 65% | 1006 hPa | 0 mm | - | 207 W/m² | - |
| 1777826470 | 8.89° C | 66% | 1005.9 hPa | 0 mm | - | 208 W/m² | - |
| 1777826167 | 8.89° C | 67% | 1005.9 hPa | 0 mm | - | 180 W/m² | - |
| 1777825865 | 8.33° C | 68% | 1005.9 hPa | 0 mm | - | 128 W/m² | - |
| 1777825562 | 8.33° C | 69% | 1005.9 hPa | 0 mm | - | 108 W/m² | - |
| 1777825260 | 8.33° C | 69% | 1006 hPa | 0 mm | - | 98 W/m² | - |
| 1777824956 | 8.33° C | 69% | 1005.9 hPa | 0 mm | - | 111 W/m² | - |
| 1777824652 | 8.33° C | 70% | 1006.1 hPa | 0 mm | - | 86 W/m² | - |
| 1777824350 | 8.89° C | 71% | 1005.9 hPa | 0 mm | - | 76 W/m² | - |
| 1777824045 | 8.89° C | 71% | 1006 hPa | 0 mm | - | 129 W/m² | - |
| 1777823742 | 8.89° C | 72% | 1006 hPa | 0 mm | - | 156 W/m² | - |
| 1777823438 | 8.33° C | 73% | 1005.8 hPa | 0 mm | - | 194 W/m² | - |
| 1777823136 | 8.33° C | 74% | 1005.9 hPa | 0 mm | - | 183 W/m² | - |
| 1777822833 | 8.33° C | 76% | 1006 hPa | 0 mm | - | 231 W/m² | - |
* Rain latest hour (hover to see other rain measurements)
** Current wind speed in m/s (hover to see current wind gust speed)